Regional Weather Roundup
Issued by NWS

Home | Current Version | Previous Version | Text Only | Print | Product List | Glossary Off
Versions: 1 2 3 4 5 6 7 8 9 10 11 12 13 14 15 16 17 18 19 20 21 22 23 24 25 26 27 28 29 30 31 32 33 34 35 36 37 38 39 40 41 42 43 44 45 46 47 48 49 50

002
ASUS43 KMPX 080601
RWRMN
WEATHER ROUNDUP FOR MINNESOTA
NATIONAL WEATHER SERVICE TWIN CITIES/CHANHASSEN MN
1200 AM CST THU DEC 08 2016


NOTE: "FAIR" INDICATES FEW OR NO CLOUDS BELOW 12,000 FEET WITH NO
SIGNIFICANT WEATHER AND/OR OBSTRUCTIONS TO VISIBILITY. N/A MEANS
CURRENT SKY AND/OR WEATHER CONDITIONS ARE NOT AVAILABLE.

MNZ060>063-068>070-080700-
   Twin Cities Metro

CITY           SKY/WX    TMP DP  RH WIND       PRES   REMARKS
TWIN CITIES    LGT SNOW  16   9  74 W20G28    30.15R WCI  -1
6HR MIN TEMP:  16; 6HR MAX TEMP:  19; 6HR PCP: TRACE;

ST PAUL        FLURRIES  17  11  77 W14G22    30.16R WCI   3
CRYSTAL        FLURRIES  16   8  71 W10G23    30.13S WCI   4
BLAINE         FLURRIES  18  12  79 W17G24    30.12R WCI   2
LAKEVILLE      LGT SNOW  12  10  92 W20       30.15S WCI  -6
EDEN PRAIRIE   FLURRIES  16   8  71 W20G26    30.15R WCI  -1
6HR MIN TEMP:  16; 6HR MAX TEMP:  19; 6HR PCP: TRACE;

SOUTH ST PAUL  FLURRIES  17  10  74 W16G22    30.14S WCI   2
LAKE ELMO      LGT SNOW  18  12  79 W14G22    30.13R WCI   4
$$
MNZ001>005-007-008-013>017-022>024-027-028-080700-
   Northwest Minnesota

CITY           SKY/WX    TMP DP  RH WIND       PRES   REMARKS
BEMIDJI        FLURRIES  18  15  88 NW13      30.08R WCI   4
HALLOCK        LGT SNOW  19  18  93 N22G31    30.24R WCI   3
ROSEAU         LGT SNOW  19  16  86 NW20      30.16R WCI   4
WARROAD        LGT SNOW  19  16  86 NW13G20   30.14R WCI   7
THIEF RVR FALL FLURRIES  19  16  88 NW18      30.18R WCI   4
CROOKSTON      LGT SNOW  19  18  93 N26G35    30.23R WCI   1
FOSSTON        LGT SNOW  18  16  93 NW17      30.15R WCI   2
DETROIT LAKES  LGT SNOW  19  18  93 NW21      30.16R WCI   3
MOORHEAD       MIX PCPN  16  12  86 NW25G32   30.24R WCI  -3
PARK RAPIDS    CLOUDY    19  12  74 NW16      30.09R WCI   4
$$
MNZ006-009>011-018-025>026-080700-
   North Central Minnesota

CITY           SKY/WX    TMP DP  RH WIND       PRES   REMARKS
BAUDETTE       LGT SNOW  21  16  81 N15       30.08R WCI   8
FLAG ISLAND    CLOUDY    21  18  86 N21G26    30.11R WCI   6
INTL FALLS     CLOUDY    21  16  81 NW12      30.02R HAZE    WCI   9
6HR MIN TEMP:  21; 6HR MAX TEMP:  24; 6HR PCP:  0.03;

WASKISH        FLURRIES  19  18  93 NW10G16   30.08R WCI   8
BIG FORK       FLURRIES  21  18  86 NW6       30.02R WCI  14
LONGVILLE      LGT SNOW  21  18  86 NW10G20   30.05R WCI  10
GRAND RAPIDS   LGT SNOW  22  19  89 NW14      30.02R FOG     WCI   9
CRANE LAKE     CLOUDY    21  19  93 N12       29.99R WCI   9
ORR            FLURRIES  21  18  86 NW9G18    29.95R WCI  11
COOK           LGT SNOW  21  18  86 NW7       29.97R WCI  13
$$
MNZ012-019>021-037-080700-
   Northeast Minnesota

CITY           SKY/WX    TMP DP  RH WIND       PRES   REMARKS
DULUTH         LGT SNOW  20  17  88 W12       29.93R FOG     WCI   8
6HR MIN TEMP:  16; 6HR MAX TEMP:  20;

ELY            PTCLDY    21  18  86 NW12      29.91R WCI   9
HIBBING        MIX PCPN  21  17  84 NW17      29.96R WCI   7
EVELETH        CLOUDY    22  18  81 NW13      29.95R WCI  10
DULUTH HARBOR  FLURRIES  23  18  80 SW13      29.99S WCI  11
TWO HARBORS    CLOUDY    25  18  74 W6        29.91R WCI  18
SILVER BAY     CLOUDY    23  19  86 NW6       29.88R WCI  16
GRAND MARAIS     N/A     26  19  74 N10G22    29.86R WCI  16
G MARAIS ARPRT FLURRIES  19  14  79 NW9G21    29.81R WCI   9
$$
MNZ029>031-032-039>041-046>048-054>057-064-080700-
   West Central Minnesota

CITY           SKY/WX    TMP DP  RH WIND       PRES   REMARKS
FERGUS FALLS   LGT SNOW  12  10  92 NW22      30.25S WCI  -7
WHEATON        LGT SNOW  16  10  79 W18G28    30.29R WCI  -1
MORRIS         LGT SNOW  12   9  85 NW26G36   30.22R WCI  -8
ALEXANDRIA     LGT SNOW  13  10  88 NW22G29   30.16R FOG     WCI  -6
ELBOW LAKE     LGT SNOW  12  10  91 NW17G25   30.21R WCI  -6
WADENA         MIX PCPN  18  12  79 NW18G24   30.11R WCI   2
GLENWOOD       LGT SNOW  12   9  85 W21G28    30.17R WCI  -6
BENSON         LGT SNOW  12   9  85 NW18G28   30.23R WCI  -5
ORTONVILLE     FLURRIES  12   7  79 NW20G30   30.27R WCI  -6
MADISON        FLURRIES  16   9  73 NW20G29   30.29R WCI  -1
WILLMAR        LGT SNOW  16  12  86 W16G29    30.21S WCI   0
$$
MNZ033>034-036-042>043-049>051-058-059-080700-
   Central Minnesota

CITY           SKY/WX    TMP DP  RH WIND       PRES   REMARKS
ST CLOUD       LGT SNOW  14  10  84 W17       30.12S FOG     WCI  -3
6HR MIN TEMP:  14; 6HR MAX TEMP:  15; 6HR PCP: TRACE;

PAYNESVILLE    FLURRIES  14  10  84 W23G30    30.16S WCI  -5
AITKIN         LGT SNOW  19  14  79 W6        30.02R WCI  11
PINE RIVER     CLOUDY    19  16  86 W8        30.09R WCI   9
BRAINERD       CLOUDY    19  14  81 W13G23    30.07R WCI   6
STAPLES        CLOUDY    16  12  86 W14G20    30.09R WCI   1
LONG PRAIRIE   LGT SNOW  14  10  85 SW15G24   30.12S WCI  -1
LITTLE FALLS   CLOUDY    18  12  79 W13       30.11R WCI   4
LITCHFIELD     FLURRIES  16  10  79 W17G23    30.17S WCI   0
BUFFALO        FLURRIES  16  10  77 W15G22    30.16S WCI   1
MAPLE LAKE     FLURRIES  16  11  82 W16G23    30.15S WCI   0
HUTCHINSON     LGT SNOW  15  10  83 W20G31    30.19R WCI  -3
$$
MNZ037-044-045-052-053-080700-
   East Central Minnesota

CITY           SKY/WX    TMP DP  RH WIND       PRES   REMARKS
PRINCETON      LGT SNOW  16  12  86 W12       30.10S WCI   3
MORA           CLOUDY    18  12  79 W10       30.08R WCI   6
CAMBRIDGE      LGT SNOW  18  10  73 W9        30.08S WCI   6
RUSH CITY      CLOUDY    16  12  86 W13       30.08R WCI   2
MOOSE LAKE     LGT SNOW  21  16  79 W8        30.00R WCI  12
HINCKLEY       FLURRIES  19  14  79 W10       30.05R WCI   8
CLOQUET        FLURRIES  19  16  86 W8        29.96R WCI   9
MCGREGOR       CLOUDY    21  18  86 W8        30.02R WCI  12
$$
MNZ071>073-080-081-089-090-097-098-080700-
   Southwest Minnesota

CITY           SKY/WX    TMP DP  RH WIND       PRES   REMARKS
MONTEVIDEO     LGT SNOW  14  10  85 NW14G20   30.28R WCI  -1
GRANITE FALLS  LGT SNOW  15  11  83 W25       30.28S WCI  -5
CANBY          CLOUDY    13   8  77 NW21G30   30.31R WCI  -5
MARSHALL       LGT SNOW  11   6  81 NW25G32   30.27S WCI -10
REDWOOD FALLS  CLOUDY    13   6  74 W22G28    30.25R WCI  -6
OLIVIA         LGT SNOW  16  10  79 W16G28    30.22S WCI   0
PIPESTONE      CLEAR      9   1  72 NW18G29   30.30R WCI -10
WINDOM         MOCLDY    10   3  72 W22G30    30.25S WCI  -9
WORTHINGTON    CLEAR      7   2  80 W26G35    30.28S WCI -15
JACKSON        PTCLDY     9   3  78 W23G31    30.26S WCI -12
TRACY          CLOUDY    11   6  79 W15G23    30.28R WCI  -5
SLAYTON        MOCLDY     7   2  80 W23G32    30.27R WCI -14
$$
MNZ065>067-074>077-082>085-091>093-080700-
   South Central Minnesota

CITY           SKY/WX    TMP DP  RH WIND       PRES   REMARKS
MANKATO        FLURRIES  12   8  84 W18       30.21S WCI  -6
NEW ULM        FLURRIES  12   7  79 W24G30    30.23S WCI  -8
ST JAMES       CLOUDY    12   7  79 W22G30    30.26S WCI  -7
FAIRMONT       MOCLDY    11   4  73 NW25      30.26S WCI -10
GLENCOE        FLURRIES  15  12  86 W17G29    30.18R WCI  -1
OWATONNA       LGT SNOW  12   7  79 W20G25    30.18S WCI  -6
WASECA         LGT SNOW  12   9  85 W18G24    30.21S WCI  -5
ALBERT LEA     MOCLDY    16   9  73 W13G23    30.20S WCI   2
$$
MNZ078>079-086>088-094>096-080700-
   Southeast Minnesota

CITY           SKY/WX    TMP DP  RH WIND       PRES   REMARKS
ROCHESTER      MIX PCPN  12   6  77 W20G26    30.14R WCI  -6
6HR MIN TEMP:  12; 6HR MAX TEMP:  18; 6HR PCP: TRACE;

RED WING       LGT SNOW  18  10  73 W18G24    30.14R WCI   2
STANTON        FLURRIES  16  10  78 W16G22    30.15S WCI   0
DODGE CENTER   MOCLDY    12   7  79 W16G26    30.14S WCI  -4
WINONA         FLURRIES  19  12  73 W17       30.17R WCI   4
AUSTIN         MOCLDY    10   5  79 W16G26    30.18S WCI  -7
PRESTON        CLOUDY    11   5  78 W21       30.16S WCI  -8
$$
ABBREVIATIONS USED IN REMARKS
   TC - TEMPERATURES IN CELSIUS
  WCI - WIND CHILL INDEX
   HX - HEAT INDEX
  VSB - VISIBILITY
$$




USA.gov is the U.S. government's official web portal to all federal, state and local government web resources and services.